Location: Finney State Fishing Lake and Wildlife Area
(38.1834°N, 100.3310°W)
Time: 09:50:25
(UTC+00:00)

Cosmos 2360 Rocket - Pass Details

Date: 17 October 2021
Orbit: 832 x 846 km, 71.0° (Epoch: 28 November)

Event Time Altitude Azimuth Distance (km) Brightness Sun altitude
Rises 11:58:53 0° 344° (NNW) 3,412 5.2 -11.2°
Reaches altitude 10° 12:01:30 10° 352° (N) 2,474 4.5 -10.7°
Maximum altitude 12:06:50 40° 62° (ENE) 1,228 3.6 -9.7°
Drops below altitude 10° 12:12:07 10° 131° (SE) 2,461 5.5 -8.7°
Sets 12:14:42 0° 138° (SE) 3,392 6.1 -8.2°
